Hourly Weather Rudka

Today, 2 August, Monday

Time Temperature Precipitation Wind Pressure Humidity
00:00 +23°C° 0 mm 4 mps 729 mmHg 62%
01:00 +23°C° 0 mm 4 mps 728 mmHg 62%
02:00 +22°C° 0 mm 3 mps 728 mmHg 65%
03:00 +21°C° 0 mm 3 mps 728 mmHg 69%
04:00 +21°C° 0 mm 3 mps 728 mmHg 72%
05:00 +20°C° 0 mm 3 mps 728 mmHg 75%
06:00 +22°C° 0 mm 4 mps 728 mmHg 68%
07:00 +25°C° 0 mm 4 mps 728 mmHg 62%
08:00 +27°C° 0 mm 5 mps 729 mmHg 55%
09:00 +27°C° 0 mm 5 mps 729 mmHg 57%
10:00 +27°C° 0 mm 5 mps 730 mmHg 58%
11:00 +26°C° 0 mm 5 mps 730 mmHg 59%
12:00 +27°C° 0 mm 5 mps 730 mmHg 56%
13:00 +28°C° 0 mm 6 mps 730 mmHg 53%
14:00 +28°C° 0 mm 6 mps 730 mmHg 51%
15:00 +27°C° 0 mm 6 mps 731 mmHg 53%
16:00 +26°C° 0 mm 6 mps 731 mmHg 55%
17:00 +24°C° 0 mm 6 mps 732 mmHg 57%
18:00 +22°C° 0 mm 5 mps 732 mmHg 62%
19:00 +20°C° 0 mm 4 mps 732 mmHg 68%
20:00 +19°C° 0 mm 3 mps 732 mmHg 73%
21:00 +17°C° 0 mm 3 mps 733 mmHg 77%
22:00 +16°C° 0 mm 2 mps 733 mmHg 81%
23:00 +15°C° 0 mm 2 mps 734 mmHg 85%

Tomorrow, 3 August, Tuesday

Time Temperature Precipitation Wind Pressure Humidity
00:00 +15°C° 0 mm 2 mps 734 mmHg 87%
01:00 +15°C° 0 mm 2 mps 734 mmHg 89%
02:00 +14°C° 0 mm 2 mps 734 mmHg 90%
03:00 +14°C° 0 mm 2 mps 734 mmHg 91%
04:00 +14°C° 0 mm 2 mps 734 mmHg 91%
05:00 +13°C° 0 mm 1 mps 734 mmHg 91%
06:00 +15°C° 0 mm 1 mps 735 mmHg 84%
07:00 +18°C° 0 mm 1 mps 735 mmHg 77%
08:00 +20°C° 0 mm 1 mps 735 mmHg 70%
09:00 +20°C° 0 mm 2 mps 735 mmHg 63%
10:00 +23°C° 0 mm 2 mps 735 mmHg 57%
11:00 +24°C° 0 mm 2 mps 736 mmHg 50%
12:00 +25°C° 0 mm 2 mps 735 mmHg 47%
13:00 +26°C° 0 mm 2 mps 735 mmHg 43%
14:00 +27°C° 0 mm 2 mps 735 mmHg 40%
15:00 +27°C° 0 mm 2 mps 735 mmHg 41%
16:00 +26°C° 0 mm 2 mps 735 mmHg 42%
17:00 +26°C° 0 mm 2 mps 734 mmHg 44%
18:00 +24°C° 0 mm 2 mps 734 mmHg 50%
19:00 +23°C° 0 mm 2 mps 735 mmHg 56%
20:00 +20°C° 0 mm 2 mps 735 mmHg 62%
21:00 +19°C° 0 mm 2 mps 735 mmHg 65%
22:00 +18°C° 0 mm 2 mps 735 mmHg 68%
23:00 +17°C° 0 mm 2 mps 735 mmHg 70%

Day after tomorrow, 4 August, Wednesday

Time Temperature Precipitation Wind Pressure Humidity
00:00 +17°C° 0.3 mm 2 mps 735 mmHg 74%
01:00 +16°C° 0.3 mm 2 mps 735 mmHg 77%
02:00 +16°C° 0.3 mm 1 mps 735 mmHg 80%
03:00 +16°C° 0.2 mm 2 mps 735 mmHg 81%
04:00 +16°C° 0.2 mm 2 mps 735 mmHg 83%
05:00 +15°C° 0.2 mm 2 mps 735 mmHg 84%
06:00 +17°C° 0.4 mm 2 mps 735 mmHg 81%
07:00 +18°C° 0.4 mm 3 mps 735 mmHg 78%
08:00 +20°C° 0.4 mm 3 mps 735 mmHg 75%
09:00 +21°C° 0.1 mm 3 mps 735 mmHg 70%
10:00 +24°C° 0.1 mm 3 mps 735 mmHg 65%
11:00 +25°C° 0.1 mm 4 mps 735 mmHg 59%
12:00 +27°C° 0 mm 3 mps 735 mmHg 55%
13:00 +28°C° 0 mm 3 mps 735 mmHg 50%
14:00 +29°C° 0 mm 3 mps 734 mmHg 45%
15:00 +27°C° 1 mm 4 mps 734 mmHg 54%
16:00 +26°C° 1 mm 5 mps 734 mmHg 62%
17:00 +23°C° 1 mm 7 mps 734 mmHg 70%
18:00 +22°C° 1.5 mm 5 mps 734 mmHg 70%
19:00 +20°C° 1.5 mm 3 mps 734 mmHg 71%
20:00 +20°C° 1.5 mm 1 mps 734 mmHg 71%
21:00 +20°C° 0 mm 1 mps 734 mmHg 72%
22:00 +19°C° 0 mm 2 mps 734 mmHg 74%
23:00 +18°C° 0 mm 2 mps 734 mmHg 75%

5 August, Thursday

Time Temperature Precipitation Wind Pressure Humidity
00:00 +18°C° 0 mm 2 mps 733 mmHg 80%
01:00 +18°C° 0 mm 2 mps 733 mmHg 84%
02:00 +17°C° 0 mm 3 mps 733 mmHg 88%
03:00 +18°C° 0 mm 3 mps 733 mmHg 87%
04:00 +18°C° 0 mm 2 mps 733 mmHg 87%
05:00 +18°C° 0 mm 2 mps 732 mmHg 86%
06:00 +20°C° 0 mm 3 mps 732 mmHg 82%
07:00 +21°C° 0 mm 3 mps 732 mmHg 77%
08:00 +22°C° 0 mm 3 mps 732 mmHg 73%
09:00 +25°C° 0 mm 3 mps 732 mmHg 65%
10:00 +27°C° 0 mm 3 mps 732 mmHg 57%
11:00 +29°C° 0 mm 3 mps 732 mmHg 49%
12:00 +30°C° 0 mm 4 mps 732 mmHg 44%
13:00 +32°C° 0 mm 4 mps 732 mmHg 40%
14:00 +33°C° 0 mm 4 mps 732 mmHg 35%
15:00 +33°C° 0 mm 4 mps 731 mmHg 37%
16:00 +33°C° 0 mm 4 mps 730 mmHg 38%
17:00 +33°C° 0 mm 4 mps 730 mmHg 39%
18:00 +30°C° 0 mm 4 mps 729 mmHg 43%
19:00 +29°C° 0 mm 5 mps 729 mmHg 48%
20:00 +27°C° 0 mm 5 mps 728 mmHg 53%
21:00 +25°C° 0.6 mm 5 mps 728 mmHg 61%
22:00 +23°C° 0.6 mm 5 mps 729 mmHg 69%
23:00 +22°C° 0.6 mm 5 mps 729 mmHg 77%

6 August, Friday

Time Temperature Precipitation Wind Pressure Humidity
00:00 +21°C° 0.9 mm 4 mps 728 mmHg 82%
01:00 +20°C° 0.9 mm 3 mps 728 mmHg 88%
02:00 +19°C° 0.9 mm 2 mps 728 mmHg 94%
03:00 +19°C° 0 mm 2 mps 728 mmHg 93%
04:00 +19°C° 0 mm 2 mps 727 mmHg 93%
05:00 +19°C° 0 mm 3 mps 727 mmHg 92%
06:00 +20°C° 0.4 mm 2 mps 727 mmHg 89%
07:00 +21°C° 0.4 mm 2 mps 727 mmHg 86%
08:00 +23°C° 0.4 mm 2 mps 727 mmHg 83%
09:00 +23°C° 0 mm 2 mps 728 mmHg 80%
10:00 +24°C° 0 mm 1 mps 728 mmHg 76%
11:00 +25°C° 0 mm 1 mps 728 mmHg 72%
12:00 +26°C° 0.1 mm 2 mps 728 mmHg 67%
13:00 +27°C° 0.1 mm 2 mps 728 mmHg 62%
14:00 +28°C° 0.1 mm 2 mps 728 mmHg 56%
15:00 +27°C° 0.1 mm 4 mps 728 mmHg 57%
16:00 +26°C° 0.1 mm 5 mps 728 mmHg 58%
17:00 +24°C° 0.1 mm 6 mps 729 mmHg 59%
18:00 +23°C° 0 mm 5 mps 729 mmHg 65%
19:00 +21°C° 0 mm 4 mps 729 mmHg 70%
20:00 +19°C° 0 mm 3 mps 730 mmHg 76%
21:00 +19°C° 0 mm 3 mps 730 mmHg 79%
22:00 +18°C° 0 mm 3 mps 730 mmHg 82%
23:00 +17°C° 0 mm 2 mps 731 mmHg 84%

7 August, Saturday

Time Temperature Precipitation Wind Pressure Humidity
00:00 +17°C° 0 mm 2 mps 731 mmHg 85%
01:00 +16°C° 0 mm 2 mps 731 mmHg 86%
02:00 +16°C° 0 mm 2 mps 731 mmHg 87%
03:00 +16°C° 0 mm 2 mps 731 mmHg 88%
04:00 +16°C° 0 mm 2 mps 731 mmHg 88%
05:00 +15°C° 0 mm 2 mps 732 mmHg 89%
06:00 +17°C° 0 mm 2 mps 732 mmHg 82%
07:00 +18°C° 0 mm 2 mps 732 mmHg 76%
08:00 +20°C° 0 mm 3 mps 732 mmHg 70%
09:00 +21°C° 0 mm 3 mps 733 mmHg 65%
10:00 +24°C° 0 mm 3 mps 733 mmHg 59%
11:00 +25°C° 0 mm 3 mps 733 mmHg 53%
12:00 +26°C° 0 mm 3 mps 733 mmHg 50%
13:00 +27°C° 0 mm 3 mps 733 mmHg 48%
14:00 +27°C° 0 mm 2 mps 733 mmHg 45%
15:00 +27°C° 0 mm 2 mps 733 mmHg 45%
16:00 +27°C° 0 mm 2 mps 733 mmHg 45%
17:00 +27°C° 0 mm 2 mps 733 mmHg 46%
18:00 +26°C° 0 mm 2 mps 733 mmHg 52%
19:00 +24°C° 0 mm 2 mps 734 mmHg 57%
20:00 +21°C° 0 mm 2 mps 734 mmHg 63%
21:00 +21°C° 0 mm 1 mps 734 mmHg 67%
22:00 +20°C° 0 mm 1 mps 734 mmHg 72%
23:00 +19°C° 0 mm 1 mps 735 mmHg 76%
Show more

We Need Your Consent

Meteoprog and our Service Providers may store and access personal data such as cookies, device identifiers or other similar technologies on your device and process such data to personalise content and ads, as well as provide social media features and to analyse the traffic.

  • Store and/or access information on your device

    Cookies, device identifiers or other information can be stored or accessed on your device for the purposes indicated above.

  • Personalised ads and content, ad and content measurement, audience insights, and products development

    Ads and content can be personalised based on a profile. More data can be added to better personalise ads and content. Ad and content performance can be measured. Insights about the audience who saw the ads and content can be derived. Such data can be used to develop or improve user’s experience, systems and software.

By clicking ‘I Agree’ you will allow the use of indicated cookies, device identifiers, web beacons or other similar technologies. Your settings can be changed in the browser on your device.

For certain purposes, legitimate interests may be relied on, rather than consent. You can read more about this in our Privacy and Cookie Policy.